RADFXSAT (FOX-1B) (43017 NORAD) Tracking and Keplerian Element Data

This shows tracking and keplerian element data for the satellite.

Feedback or suggestion? Click here.




ElementValue
Catalog43017
NameRADFXSAT (FOX-1B)
Epoch Orbit37320
Epoch Day286.59118419
Epoch Year2024
RAAN158.0645
Inclination97.5557
Eccentricity0.0197142
Argument of Perigee260.0515
Mean Anonmoly97.8407
Mean Motion14.97223474
Decay Rate0.00019633
L11 43017U 17073E 24286.59118419 .00019633 00000+0 11382-2 0 9991
L22 43017 97.5557 158.0645 0197142 260.0515 97.8407 14.97223474373200



Live tracking and technical data element details for RADFXSAT (FOX-1B) (NORAD 43017). RADFXSAT (FOX-1B) can be tracked NOW for your location showing map with azimuth and elevation plus other details from your city location.







IsCatalogInMostPopularTable: catalog: 43017, numindb: 1272
Update: records affected: 1



GetName: 43017 RADFXSAT (FOX-1B)

Hit Count: updated at: Mon, 13 Jan 2025 19:29:21 GMT